Home   Weather   USA   Jacksonville   Past weeks
Flag for USA

Past Weather in Jacksonville, Florida, USA — Yesterday and Last 2 Weeks

Currently: 68 °F. Cool. (Weather station: Bellair-Meadowbrook Terrace - MADIS Station, USA). See more current weather

Past Weather in Jacksonville — Graph

°F

Jacksonville Temperature Yesterday

Maximum temperature yesterday: 86 °F (at 3:33 pm)
Minimum temperature yesterday: 68 °F (at 6:33 am)
Average temperature yesterday: 75 °F

High & Low Weather Summary for the Past Weeks

 TemperatureHumidityPressure
High91 °F (Sep 15, 2:03 pm)94% (Sep 15, 4:48 am)30.24 "Hg (Sep 15, 4:48 am)
Low68 °F (Sep 23, 6:33 am)45% (Sep 23, 6:18 pm)29.78 "Hg (Sep 22, 7:18 pm)
Average80 °F82%29.99 "Hg
* Reported Sep 9 12:18 am — Sep 23 11:18 pm, Jacksonville. Weather by CustomWeather, © 2021

Note: Actual official high and low records may vary slightly from our data, if they occured in-between our weather recording intervals... More about our weather records

Jacksonville Weather History for the Previous 24 Hours

Scroll right to see more
 ConditionsComfort  
Time TempWeatherWind HumidityBarometerVisibility
11:18 pm
Thu, Sep 23
70 °FCool.2 mph77%29.95 "HgN/A
10:33 pm70 °FCool.No wind83%29.95 "HgN/A
10:18 pm70 °FCool.No wind82%29.94 "HgN/A
10:03 pm70 °FCool.No wind82%29.94 "HgN/A
9:18 pm72 °FMild.No wind79%29.92 "HgN/A
8:18 pm73 °FMild.No wind69%29.90 "HgN/A
7:33 pm76 °FMild.No wind61%29.89 "HgN/A
7:18 pm78 °FMild.No wind55%29.89 "HgN/A
6:33 pm81 °FWarm.1 mph48%29.88 "HgN/A
6:18 pm82 °FWarm.No wind45%29.88 "HgN/A
6:03 pm83 °FWarm.1 mph46%29.87 "HgN/A
5:18 pm84 °FWarm.2 mph47%29.86 "HgN/A
5:03 pm85 °FWarm.3 mph49%29.86 "HgN/A
4:18 pm85 °FWarm.3 mph52%29.86 "HgN/A
4:03 pm85 °FWarm.3 mph53%29.86 "HgN/A
3:33 pm86 °FWarm.2 mph52%29.86 "HgN/A
3:03 pm85 °FWarm.2 mph54%29.87 "HgN/A
2:18 pm84 °FWarm.3 mph54%29.89 "HgN/A
2:03 pm84 °FWarm.2 mph55%29.89 "HgN/A
1:48 pm82 °FWarm.2 mph54%29.90 "HgN/A
1:18 pm82 °FWarm.2 mph57%29.90 "HgN/A
1:03 pm81 °FWarm.1 mph59%29.90 "HgN/A
12:33 pm79 °FMild.2 mph62%29.91 "HgN/A
12:18 pm78 °FMild.1 mph63%29.90 "HgN/A
12:03 pm78 °FMild.3 mph61%29.91 "HgN/A
11:18 am76 °FMild.1 mph68%29.92 "HgN/A
10:48 am73 °FMild.3 mph69%29.92 "HgN/A
10:18 am72 °FMild.2 mph71%29.92 "HgN/A
10:03 am72 °FMild.2 mph72%29.91 "HgN/A
9:18 am70 °FCool.4 mph74%29.90 "HgN/A
8:18 am69 °FCool.2 mph78%29.89 "HgN/A
8:03 am68 °FCool.2 mph79%29.89 "HgN/A
7:33 am68 °FCool.1 mph80%29.88 "HgN/A
7:18 am68 °FCool.2 mph80%29.88 "HgN/A
6:33 am68 °FCool.2 mph79%29.88 "HgN/A
5:18 am70 °FCool.3 mph80%29.86 "HgN/A
5:03 am70 °FCool.3 mph80%29.86 "HgN/A
4:48 am70 °FCool.1 mph81%29.85 "HgN/A
4:18 am69 °FCool.1 mph82%29.86 "HgN/A
4:03 am69 °FCool.1 mph83%29.85 "HgN/A
3:33 am70 °FCool.1 mph83%29.85 "HgN/A
3:03 am70 °FCool.2 mph84%29.85 "HgN/A
2:18 am71 °FCool.3 mph88%29.85 "HgN/A
2:03 am71 °FCool.4 mph90%29.85 "HgN/A
1:33 am72 °FMild.2 mph91%29.85 "HgN/A
1:18 am73 °FMild.3 mph91%29.85 "HgN/A
Weather by CustomWeather, © 2021

See weather overview